Dewpoint
35 36 36 38 39 37 38 37 37 39 40 42 41 37 36 37 37 38 38 38 38 39 39 40 40 40 40
34 33 35 35 36 35 36 36 36 37 38 37 35 35 37 36 35 34 34 36 37 37 38 38 38 38 39
33 33 32 34 34 35 34 34 32 33 35 35 34 32 31 32 33 34 35 35 36 36 35 36 37 38 38
33 32 33 34 34 33 32 31 30 29 30 28 29 30 31 32 32 31 32 32 33 34 34 35 35 36 37
32 32 32 32 31 31 30 29 26 26 24 25 25 25 26 29 29 30 30 31 32 33 34 34 35 35 35
32 30 30 28 28 28 25 23 21 25 24 23 24 24 25 26 30 31 31 31 32 33 33 34 34 34 34
28 28 25 24 24 24 24 23 22 24 24 24 24 24 25 25 30 30 30 31 32 33 33 34 34 34 34
28 26 25 25 26 24 24 24 25 25 25 20 23 22 23 24 29 29 30 30 31 31 32 33 33 33 33
27 26 26 27 26 25 20 17 19 22 23 22 22 22 23 23 24 27 28 29 30 30 31 31 32 32 31
20 21 22 21 24 22 21 12 12 13 22 20 22 23 18 22 23 23 24 27 28 28 29 30 30 28 28
20 19 16 15 18 20 22 14 8 13 23 25 20 24 25 20 23 23 23 23 23 24 28 28 29 29 29
15 13 16 18 20 22 25 22 21 23 25 28 25 23 23 21 21 21 22 24 24 24 24 27 29 30 30
17 18 17 17 17 18 20 23 22 25 28 27 27 26 25 23 22 22 23 23 24 25 24 23 24 25 24
19 19 21 17 18 19 16 20 20 22 26 29 29 28 25 24 24 23 23 23 24 25 25 25 26 26 26
20 21 19 20 21 23 23 23 21 20 21 24 27 27 27 26 24 25 24 24 26 26 25 25 27 27 27
23 22 21 22 22 23 24 22 20 19 20 20 22 24 24 25 28 25 25 25 26 26 27 26 26 27 27
23 23 23 23 21 20 20 21 19 19 19 20 19 20 18 16 20 24 22 23 24 24 26 25 24 25 27
Lifted_Index
7 7 8 8 9 11 11 12 13 14 14 14 14 15 17 18 19 18 18 18 18 18 18 17 17 17 16
7 8 9 9 9 10 11 12 13 14 14 15 15 17 18 19 19 19 18 18 18 18 18 18 17 17 16
7 8 9 9 10 10 11 12 13 14 15 16 18 19 19 19 19 19 19 18 18 18 18 18 17 17 17
7 8 9 10 10 10 11 12 13 16 17 18 19 20 20 20 19 19 19 19 18 18 18 18 18 17 17
8 9 9 10 11 11 11 12 15 17 19 19 20 20 20 20 19 19 19 19 19 18 18 18 18 17 17
9 10 11 12 13 14 14 15 16 18 19 19 19 19 19 19 19 19 18 18 18 18 17 17 17 16 16
12 13 15 16 17 17 17 17 18 19 19 18 18 18 18 18 17 17 17 17 17 16 16 15 15 15 14
17 18 19 20 20 19 19 19 19 20 19 18 17 16 16 16 16 15 15 15 15 14 14 14 14 13 13
20 20 21 21 21 20 20 19 18 18 18 17 15 14 14 13 13 13 13 13 13 13 13 13 13 13 13
21 21 21 21 21 21 20 18 16 16 16 16 14 13 12 11 11 12 12 12 12 12 12 12 13 13 13
21 21 21 21 20 20 19 18 16 15 16 15 13 12 11 10 9 10 10 10 11 11 11 12 12 13 13
20 20 20 19 19 19 18 17 16 15 15 14 13 12 11 9 8 8 9 9 9 10 10 11 12 12 13
19 19 18 18 18 17 16 15 14 14 14 14 13 12 11 10 9 8 8 8 9 9 10 10 11 12 12
18 18 18 17 16 15 14 12 12 12 12 13 13 13 12 11 10 9 9 8 9 9 10 10 11 11 12
17 17 16 15 14 13 12 11 10 10 10 11 12 12 12 11 10 10 9 9 9 10 10 10 10 11 11
17 16 15 14 13 12 11 10 10 9 9 10 11 11 10 10 10 10 10 9 10 10 10 10 10 11 12
17 16 15 14 13 12 11 10 9 9 9 10 10 9 9 9 10 10 10 9 10 10 10 10 10 11 12